Theta_e
333 330 321 316 303 299 295 298 301 301 302 307 311 313 313 315 312 306 328 336 339 341 345 347 348 349 348 346 345 344 342 340 339 339 340 341 342 340 338 338 337 337 336 336 337 336 336 336 335
330 328 317 308 298 292 294 300 303 305 307 309 313 314 314 312 322 324 328 338 340 342 345 345 345 348 347 345 344 342 342 339 338 337 342 341 342 340 338 337 336 335 336 336 336 335 336 334 334
329 324 311 303 297 293 295 301 306 308 311 309 309 315 316 317 323 326 332 338 340 341 344 344 345 347 346 345 343 342 341 340 340 340 340 339 340 340 337 336 336 335 335 336 334 335 334 333 334
323 318 311 301 297 299 300 305 309 307 307 311 311 312 318 325 325 329 337 338 339 340 343 343 346 347 346 344 343 342 341 341 340 340 340 340 340 339 337 336 335 334 334 333 333 334 334 333 333
318 310 302 298 298 299 302 310 310 308 307 307 309 310 314 325 329 333 335 337 337 338 341 343 344 346 345 345 344 343 341 340 340 340 340 341 340 340 337 335 334 333 333 333 333 333 332 332 331
311 308 298 294 300 302 304 310 310 307 307 308 306 314 316 326 327 329 334 336 338 337 340 342 338 340 343 343 343 342 341 340 340 339 337 338 339 338 337 334 334 332 332 332 333 332 332 331 330
308 305 299 298 301 302 305 308 306 306 307 307 309 311 317 322 327 328 332 336 337 338 339 339 339 338 336 339 339 340 340 340 339 337 336 333 335 332 336 335 334 332 332 331 330 331 331 330 329
309 306 299 298 299 301 306 306 307 307 307 312 312 310 312 323 327 328 329 333 334 336 337 336 335 336 336 336 333 334 336 337 336 334 331 329 329 329 330 328 333 333 332 332 332 332 331 330 328
311 301 298 301 302 303 307 305 307 309 311 310 313 312 317 327 327 326 324 327 330 333 335 335 334 333 333 333 331 330 332 332 331 329 326 324 323 324 323 325 329 333 334 333 332 332 331 330 328
306 299 301 307 307 305 307 305 305 304 305 306 311 320 324 325 325 324 323 324 326 328 331 334 333 332 332 335 330 331 331 329 328 325 324 324 323 323 324 323 325 330 330 333 332 332 331 325 318
307 301 306 307 308 308 307 306 309 304 302 305 307 316 322 321 323 324 324 325 326 328 330 332 333 332 331 330 327 330 329 327 325 323 323 323 322 320 321 321 322 322 321 323 327 325 322 319 318
303 309 309 310 309 308 306 310 308 308 306 311 311 317 323 322 322 323 323 322 324 325 327 330 332 330 330 327 327 328 329 327 325 323 322 322 319 318 318 318 319 319 319 317 317 316 318 317 317
304 306 309 310 309 307 310 307 308 309 312 315 313 317 321 323 323 324 325 324 324 325 326 327 329 327 329 326 326 327 328 327 326 324 323 323 319 318 318 317 316 317 317 316 316 315 316 316 317
303 307 306 307 307 308 308 307 309 309 312 312 314 313 318 321 322 323 322 324 323 326 326 327 326 326 327 327 325 325 326 326 325 325 325 323 322 320 318 317 316 315 317 317 316 316 316 316 316
306 300 302 301 304 303 308 303 305 309 311 311 311 312 311 318 323 322 325 325 326 326 327 326 326 326 325 325 325 325 325 325 324 323 324 324 323 322 320 318 317 317 316 316 315 315 315 314 315
300 298 293 299 303 304 302 293 303 308 307 306 306 307 310 310 318 323 325 325 326 326 326 327 328 326 325 325 324 324 324 324 324 323 323 324 323 322 320 320 318 318 316 315 314 313 313 313 313
294 287 291 296 302 301 300 294 301 306 304 304 304 304 306 310 309 319 324 324 325 327 327 326 327 325 325 325 324 323 322 322 324 323 323 323 323 322 321 320 320 318 317 315 314 312 311 311 312
288 289 291 292 297 299 297 296 300 302 303 302 302 302 304 306 310 311 319 324 325 326 327 327 327 327 324 324 324 322 321 321 321 323 323 323 324 323 321 319 319 318 316 316 314 312 311 311 311
294 290 291 292 298 295 294 295 298 300 299 300 303 303 304 305 309 311 313 322 324 325 327 327 327 327 325 322 321 321 320 320 318 320 322 322 323 323 321 320 318 317 316 316 314 313 311 311 311
294 291 289 293 296 295 294 294 296 297 299 300 303 301 302 303 305 309 311 318 322 325 327 327 328 329 326 326 324 324 323 322 322 321 320 321 321 321 321 320 318 318 318 315 314 313 311 311 312
294 292 290 290 293 295 293 291 293 297 298 300 301 302 302 302 305 306 308 315 321 323 325 327 328 328 328 328 326 322 321 319 319 321 320 319 320 320 320 320 319 318 318 317 317 315 313 313 310
290 297 294 293 291 285 292 283 289 293 296 298 299 300 301 302 303 304 307 311 319 322 325 327 328 328 329 329 326 323 322 320 322 322 323 322 320 319 320 320 319 318 319 318 318 318 317 315 313
292 297 294 292 290 287 287 285 288 292 292 295 297 300 301 301 302 304 305 309 316 322 323 325 327 328 329 328 327 325 323 324 324 323 321 322 322 320 320 320 319 318 319 319 318 318 318 318 317
298 294 293 291 289 284 289 286 287 291 292 295 298 299 300 300 301 303 305 307 309 317 321 323 324 326 327 327 327 326 324 324 323 323 322 322 322 322 321 320 320 319 319 319 319 319 318 319 318
297 292 284 282 282 281 287 286 290 293 294 295 297 298 297 299 299 301 302 305 307 310 316 320 321 323 327 326 326 326 326 325 324 324 324 323 322 322 322 321 320 319 319 319 319 319 318 318 318
293 292 282 273 276 280 286 284 289 296 300 301 301 298 298 298 299 300 302 303 303 305 308 315 318 321 324 326 326 327 327 327 326 326 326 324 324 324 325 323 322 321 321 320 319 318 318 319 318
290 289 291 282 276 278 281 287 292 295 295 294 296 296 296 296 298 299 300 300 301 302 303 308 313 317 320 323 325 326 326 326 326 327 327 326 326 326 325 325 323 322 321 320 319 318 318 318 318
292 294 286 284 272 270 279 280 285 287 291 293 293 293 295 296 297 298 299 299 300 301 301 303 307 311 315 320 323 324 326 326 327 327 326 327 327 326 325 324 324 323 322 321 320 319 319 318 318
291 288 289 287 283 277 275 280 289 291 292 292 293 294 295 296 296 297 297 298 299 298 298 299 301 303 304 308 315 319 322 323 324 326 326 327 327 327 325 325 324 324 323 323 321 320 320 319 319
293 289 289 283 279 282 281 281 292 292 294 291 291 295 294 294 295 296 296 296 296 296 297 298 299 300 302 303 305 308 312 317 320 323 324 326 326 327 326 325 324 324 324 323 322 321 321 321 320
Wind_Speed
11 14 1 5 6 6 1 1 1 2 3 2 1 7 7 3 1 3 2 9 13 8 8 8 11 11 13 16 14 13 10 12 11 10 10 12 13 14 13 12 13 11 13 13 14 15 15 13 12
10 7 5 3 6 4 4 1 5 3 1 1 6 3 4 1 1 7 6 9 13 10 7 8 11 12 13 15 12 11 11 12 11 10 10 13 14 14 13 11 13 11 12 13 14 14 12 10 10
9 1 4 5 4 4 5 3 5 4 3 2 2 4 3 4 2 8 7 11 13 10 9 8 10 13 14 14 12 12 11 11 10 10 9 12 10 15 13 11 9 12 12 12 12 12 10 8 8
5 5 4 5 3 1 6 6 5 3 2 4 4 5 3 5 9 7 14 13 12 11 9 10 12 13 14 14 13 13 13 11 11 9 8 13 10 15 13 11 11 9 11 11 11 10 8 7 7
4 4 4 3 1 2 1 5 7 4 3 2 3 4 1 4 1 15 13 11 12 9 9 10 12 13 13 14 13 13 12 12 10 9 8 12 9 10 14 11 10 9 10 10 10 8 7 5 5
5 4 5 2 4 1 1 6 6 4 4 3 5 6 5 2 8 10 11 11 11 10 9 9 11 12 11 12 12 12 12 10 8 6 9 9 10 8 12 10 9 9 9 9 8 7 5 3 3
6 4 3 1 4 1 1 7 6 5 4 3 6 5 1 3 7 7 9 9 10 10 9 6 7 9 10 10 9 10 11 9 10 9 6 9 7 8 9 7 10 8 8 7 7 5 4 2 1
5 5 3 2 0 3 3 1 4 6 5 1 4 5 5 8 9 8 8 8 8 8 9 8 6 7 7 7 9 10 9 10 11 12 8 8 9 8 6 7 4 9 7 7 6 6 4 3 1
3 4 4 5 5 2 5 2 3 1 5 1 1 4 4 13 9 8 6 5 6 7 9 9 8 7 7 6 7 9 10 9 9 10 10 7 4 5 6 5 8 9 8 8 7 7 6 4 3
4 4 9 6 7 5 3 2 2 1 2 0 2 4 5 11 10 12 11 10 10 10 8 9 9 9 7 7 7 6 5 4 5 5 7 4 5 5 5 5 10 6 8 8 8 8 6 5 2
4 6 5 2 3 0 3 1 1 2 1 2 1 4 4 5 10 12 11 12 15 12 9 10 10 10 9 7 5 4 4 4 3 5 6 5 4 4 3 3 2 3 5 3 4 3 3 4 3
3 6 4 2 2 2 2 3 3 4 5 3 5 8 8 9 11 12 13 9 11 11 13 12 11 10 10 6 6 6 5 6 5 6 6 5 3 4 4 3 4 4 3 5 4 3 4 5 5
4 4 5 4 4 4 4 5 5 6 8 8 2 8 11 11 11 10 10 7 9 12 12 14 13 11 10 9 7 7 7 6 7 7 6 6 5 5 4 4 4 4 4 4 4 4 4 5 5
3 6 6 4 4 3 5 5 5 7 5 5 7 7 10 11 14 8 8 12 10 13 13 12 14 12 12 10 10 8 7 8 6 6 7 8 7 7 6 5 5 4 4 4 4 5 5 5 4
4 4 7 4 4 5 4 6 10 6 5 8 8 10 8 12 13 15 18 15 14 12 12 13 14 13 13 13 11 8 8 8 8 7 7 7 7 8 7 5 5 5 5 6 5 5 3 4 3
5 3 5 3 6 5 6 11 7 10 6 10 9 8 11 9 15 15 15 13 14 12 13 14 12 13 13 12 10 8 8 8 8 8 8 11 11 9 6 6 6 6 5 5 4 4 4 4 4
3 3 6 6 6 5 8 7 8 11 9 10 9 9 9 9 9 11 15 14 15 15 12 11 13 13 13 11 9 8 9 8 8 8 8 11 12 10 8 7 6 6 6 5 5 4 4 4 4
6 6 6 10 6 7 9 16 11 8 7 10 10 9 8 8 12 11 15 17 16 14 15 13 11 12 11 8 7 6 6 7 7 8 9 10 10 11 9 7 8 6 4 5 3 5 4 4 4
10 5 10 4 5 4 7 13 14 11 8 11 14 10 9 10 10 8 11 14 14 11 13 16 14 12 9 7 8 8 11 8 6 9 11 12 11 12 12 8 6 6 7 8 7 5 6 5 3
9 10 8 3 6 8 11 19 12 10 13 9 14 9 10 7 8 9 8 10 13 17 17 15 18 16 12 10 8 8 7 8 8 7 9 12 12 12 12 11 8 10 8 7 8 7 4 4 5
16 21 6 5 2 4 4 11 7 8 7 7 7 8 7 11 15 12 8 11 14 15 18 18 19 18 15 16 8 5 2 2 5 8 10 12 13 13 13 12 11 10 10 9 10 9 11 8 4
21 9 8 7 5 7 3 9 5 5 11 8 6 9 11 9 11 11 11 9 13 16 15 17 17 17 16 16 12 15 13 13 12 10 9 10 13 14 14 14 13 12 10 12 11 9 11 8 8
13 12 11 5 6 2 5 3 7 4 8 9 8 11 13 10 9 14 12 12 13 15 15 15 15 15 16 16 17 13 15 12 8 8 8 11 10 14 15 15 14 14 11 13 14 11 12 10 10
8 6 3 3 5 11 19 7 11 11 7 6 7 10 8 9 7 8 9 7 8 9 11 11 13 15 14 15 18 19 19 16 10 11 10 9 9 9 14 15 15 15 14 14 13 13 14 14 11
9 13 5 9 9 10 7 8 19 10 6 7 11 11 2 8 9 8 9 8 5 5 7 8 12 15 16 16 16 21 21 18 19 16 12 13 10 11 14 16 16 14 15 16 14 13 14 14 14
22 16 7 9 7 6 7 8 11 11 14 18 13 5 4 6 5 6 8 8 7 8 7 6 7 12 11 12 15 15 17 12 13 14 12 11 12 13 14 14 15 17 16 15 13 12 12 14 13
6 17 10 5 3 3 4 6 11 8 8 3 7 9 7 5 4 6 6 6 8 8 7 7 6 6 6 9 11 13 13 15 15 18 14 12 14 12 13 15 15 17 16 16 15 12 15 14 14
10 9 8 3 4 4 4 3 8 1 6 7 6 6 6 4 5 7 7 8 6 6 7 7 5 5 5 6 7 10 12 13 15 15 15 16 15 15 14 14 15 16 17 17 16 14 15 15 13
8 7 5 5 5 6 3 8 8 8 7 10 6 5 6 5 4 5 5 5 6 7 7 7 8 8 7 4 6 7 9 10 11 13 15 17 16 15 15 16 15 16 17 17 17 18 17 17 16
12 10 7 7 7 3 2 7 6 9 11 8 7 6 3 2 1 3 5 6 7 7 8 8 8 7 8 8 7 7 8 9 11 12 15 15 16 16 16 17 16 16 17 17 18 19 17 19 18
Wind_Direction
319 322 69 42 58 62 32 55 55 79 28 297 342 96 121 59 114 191 120 145 127 135 138 134 136 130 120 105 101 101 107 109 113 115 110 111 109 101 98 91 94 89 93 93 93 93 95 90 81
314 330 31 76 83 82 292 296 115 120 171 125 82 98 52 102 154 118 108 155 134 136 135 138 135 129 120 112 119 123 119 118 119 122 109 107 103 107 101 93 97 93 95 98 98 97 97 91 81
314 76 67 86 112 149 173 202 180 154 85 60 71 61 127 163 111 154 144 147 135 135 139 141 139 136 130 129 133 129 127 125 134 136 127 114 110 115 108 107 96 103 105 106 104 104 103 91 68
356 360 34 81 97 8 169 180 179 127 73 87 114 55 354 246 159 156 146 148 137 141 140 148 146 142 140 144 144 143 138 141 137 158 143 114 109 124 114 111 107 110 114 115 112 113 109 89 52
30 51 26 65 79 142 199 184 157 129 147 125 132 174 65 344 162 141 150 148 139 142 147 152 149 149 150 151 150 151 144 143 145 163 153 123 108 112 117 116 115 123 121 126 122 122 111 84 44
47 91 35 18 344 55 178 182 134 146 180 174 93 128 191 158 142 155 142 147 142 145 152 155 155 154 158 157 156 151 148 143 144 135 146 108 124 115 111 122 128 132 140 130 130 132 116 83 40
111 94 193 275 292 192 220 149 151 181 159 234 147 120 216 186 182 144 138 137 144 147 148 151 158 163 162 163 162 156 154 150 137 125 132 157 98 156 113 126 137 143 145 147 142 137 136 135 9
105 94 161 175 270 273 291 54 132 157 208 120 143 174 206 210 181 139 130 143 147 156 157 161 159 163 163 166 168 160 161 157 147 140 154 159 164 162 132 140 162 148 155 155 161 172 176 199 270
111 76 185 208 163 318 311 318 345 189 119 122 84 143 247 157 155 133 131 140 157 171 170 167 164 168 165 167 174 168 167 168 164 153 157 150 146 147 148 152 179 161 161 174 185 191 199 218 265
110 151 214 204 161 165 221 235 267 186 89 314 35 5 81 143 171 174 174 175 178 182 185 177 173 172 170 175 167 170 173 166 169 173 162 166 170 174 171 189 189 158 166 184 199 205 208 222 246
190 201 206 260 143 118 127 94 209 20 271 200 187 192 160 155 185 192 196 190 185 183 179 186 182 178 172 178 171 173 168 167 175 201 170 177 171 180 172 169 169 170 189 208 222 223 223 232 232
182 243 195 209 141 154 208 163 301 155 208 247 266 190 176 182 195 205 208 193 187 189 185 185 185 185 184 166 178 177 181 179 183 199 189 169 174 188 184 183 191 193 198 210 215 223 239 241 244
221 243 242 221 182 182 168 217 213 239 248 267 164 155 196 206 207 213 219 215 194 204 193 186 184 184 187 179 179 180 186 191 193 197 199 171 175 187 184 200 195 199 195 209 218 220 230 239 248
242 216 253 274 245 226 198 249 156 242 193 274 301 188 206 210 215 215 209 217 205 203 203 189 189 183 180 189 188 187 187 185 190 202 207 184 184 189 197 196 202 205 203 207 210 218 223 234 230
243 286 285 242 214 227 170 280 234 226 252 261 259 270 213 212 228 214 217 211 209 212 205 198 191 186 179 187 189 191 193 190 194 197 199 200 193 197 192 196 206 208 203 214 217 234 239 246 241
177 174 243 264 189 247 127 261 243 257 209 249 249 261 272 225 217 218 224 217 207 202 199 201 198 195 193 190 191 190 193 195 202 198 196 197 198 196 196 201 212 206 203 201 206 213 233 233 227
246 192 211 292 214 195 188 266 239 233 225 246 259 243 258 268 235 228 218 213 216 206 196 200 200 199 201 200 194 197 194 196 203 203 198 201 202 201 195 203 215 201 203 203 203 215 197 218 237
204 200 221 212 233 209 244 257 261 268 248 237 246 251 256 260 258 228 224 214 213 207 199 192 200 201 201 198 202 204 207 207 200 206 210 202 206 203 203 206 207 198 204 217 200 207 210 210 223
198 225 216 207 244 252 244 259 262 263 246 251 254 249 257 254 260 249 227 211 206 197 197 199 192 196 191 195 201 210 215 215 208 211 209 203 209 206 207 210 201 193 205 214 207 194 208 237 196
210 221 223 254 230 195 257 264 260 249 255 222 238 243 245 260 269 261 242 212 194 195 198 197 201 197 196 205 211 217 216 227 225 215 213 209 206 206 210 209 199 204 210 205 204 200 211 223 181
220 223 167 191 304 263 284 280 240 253 245 235 243 249 254 242 259 261 243 210 204 199 200 200 205 201 198 207 204 206 217 218 212 218 218 215 209 206 209 209 206 206 206 217 215 206 208 228 209
222 191 178 193 180 244 142 278 259 250 264 261 253 268 268 260 255 256 249 221 207 210 208 209 208 205 204 196 201 207 216 224 230 235 234 223 211 211 210 212 207 208 208 217 218 211 215 212 224
226 176 199 174 209 146 250 271 282 305 270 274 275 262 267 264 260 259 246 229 216 209 205 209 211 208 204 200 205 202 218 231 235 232 235 231 228 222 216 214 210 213 212 217 218 211 208 207 221
147 104 105 139 165 230 236 190 257 250 214 232 243 256 274 271 289 287 275 245 229 216 207 209 206 213 207 201 205 209 215 220 221 223 224 222 224 219 226 221 220 218 217 217 216 215 212 214 216
186 153 183 215 222 240 168 181 245 249 222 226 235 258 346 320 329 338 7 4 330 289 257 214 201 212 207 205 207 214 219 218 224 224 220 216 217 219 223 217 221 224 222 221 216 214 216 212 216
199 192 174 192 197 217 139 211 245 238 239 254 253 269 52 70 28 43 35 39 31 19 331 257 226 233 222 220 220 221 229 228 229 234 232 227 227 226 224 215 219 224 226 224 219 219 219 218 221
186 208 189 96 15 85 205 284 307 247 269 108 101 103 123 88 49 56 43 24 13 16 17 348 285 263 252 231 234 230 227 229 234 236 233 231 232 236 228 219 215 221 219 220 217 222 225 219 219
178 160 198 187 163 229 224 247 236 283 151 148 138 131 110 82 49 40 28 17 7 1 353 12 357 314 297 274 256 250 246 239 240 243 238 236 238 237 233 225 219 217 219 216 214 222 227 224 225
160 190 185 154 175 185 192 240 215 198 175 160 161 123 103 70 33 6 5 358 350 351 1 354 355 347 336 301 273 265 262 260 250 247 244 243 240 235 233 231 225 220 219 218 215 219 222 222 227
210 191 170 187 206 209 121 267 221 218 154 142 132 128 152 164 269 323 322 331 345 338 346 346 348 347 331 328 327 308 295 285 268 263 258 252 247 242 238 236 233 228 226 223 220 224 221 223 224